This demonstration page uses our WeatherBlox Daily Observations layout. Learn more.

Left ArrowRight Arrow

39.51506, -84.39828

Hourly Observations for March 14, 2015

Temp ( °F °C ) Dew Point ( °F °C ) Humidity (%) Winds ( mph kmh ) Pressure ( in mb ) Visibility ( mi km ) Precip ( " mm )
12:15 am 00:15 Cloudy with Drizzle 52 11 48 9.1 88 88 N N/A 30.06 1018 7 11 N/A
12:35 am 00:35 Cloudy with Rain 52 11 48 9.1 88 88 N N/A 30.06 1018 4 6 N/A
12:55 am 00:55 Cloudy with Light Rain 52 11 49 9.2 89 89 N N/A 30.06 1018 4 6 N/A
1:15 am 01:15 Cloudy with Rain 52 11 49 9.2 89 89 N N/A 30.06 1018 5 8 N/A
1:35 am 01:35 Cloudy with Light Rain 52 11 49 9.2 89 89 N N/A 30.03 1017 7 11 N/A
1:55 am 01:55 Cloudy with Light Rain 52 11 49 9.2 89 89 N N/A 30.03 1017 5 8 N/A
2:15 am 02:15 Cloudy with Drizzle 52 11 49 9.2 89 89 N N/A 30.03 1017 4 6 N/A
2:35 am 02:35 Cloudy with Rain 52 11 49 9.3 89 89 N N/A 30.03 1017 3 5 N/A
2:55 am 02:55 Cloudy with Light Rain 52 11 49 9.3 89 89 N N/A 30.03 1017 3 4 N/A
3:15 am 03:15 Cloudy with Rain 51 10.8 48 9.1 89 89 N N/A 30.00 1016 2 2 N/A
3:35 am 03:35 Cloudy with Rain 52 10.9 48 9.1 89 89 N N/A 30.00 1016 1 2 N/A
3:55 am 03:55 Cloudy with Light Rain 52 10.9 49 9.2 89 89 N N/A 30.00 1016 1 2 N/A
4:15 am 04:15 Cloudy with Rain 52 11 49 9.3 89 89 N N/A 30.00 1016 1 1 N/A
4:35 am 04:35 Cloudy with Light Rain 52 11 49 9.3 89 89 N N/A 29.97 1015 1 2 N/A
4:55 am 04:55 Cloudy with Light Rain 52 11 49 9.3 89 89 N N/A 29.97 1015 2 3 N/A
5:15 am 05:15 Cloudy with Light Rain 52 11 49 9.3 89 89 N N/A 29.97 1015 1 2 N/A
5:35 am 05:35 Cloudy with Rain 51 10.3 48 8.7 90 90 N N/A 29.97 1015 1 2 N/A
5:55 am 05:55 Cloudy with Light Rain 50 10 47 8.5 91 91 N N/A 29.97 1015 2 3 N/A
6:15 am 06:15 Cloudy with Light Rain 51 10.3 48 8.7 90 90 N N/A 29.97 1015 2 3 N/A
6:35 am 06:35 Cloudy with Light Rain 51 10.3 48 8.7 90 90 N N/A 29.97 1015 2 3 N/A
6:55 am 06:55 Cloudy with Drizzle 52 11 49 9.4 90 90 N N/A 29.97 1015 2 3 N/A
7:15 am 07:15 Cloudy with Drizzle 52 10.9 49 9.3 90 90 N N/A 29.97 1015 2 3 N/A
7:35 am 07:35 Cloudy with Rain 52 11 49 9.5 91 91 N N/A 29.97 1015 2 3 N/A
7:55 am 07:55 Cloudy with Drizzle 51 10.3 48 8.7 90 90 N N/A 29.97 1015 1 2 N/A
8:15 am 08:15 Cloudy with Drizzle 52 11 49 9.5 91 91 N N/A 29.97 1015 3 4 N/A
8:35 am 08:35 Cloudy with Drizzle 52 11 49 9.5 91 91 N N/A 30.00 1016 2 3 N/A
8:55 am 08:55 Cloudy with Drizzle 55 12.5 51 10.8 89 89 N N/A 30.00 1016 4 6 N/A
9:15 am 09:15 Cloudy with Light Rain 55 12.5 51 10.8 89 89 N N/A 30.00 1016 7 11 N/A
9:35 am 09:35 Cloudy with Light Rain 55 12.5 52 11 91 91 N N/A 29.97 1015 5 8 N/A
9:55 am 09:55 Cloudy 55 12.5 52 11 91 91 N N/A 29.97 1015 10 16 N/A
10:15 am 10:15 Cloudy with Light Rain 55 12.5 52 11 91 91 N N/A 29.97 1015 10 16 N/A
10:35 am 10:35 Cloudy with Light Rain 55 12.5 52 11.1 91 91 N N/A 29.97 1015 7 11 N/A
10:55 am 10:55 Cloudy 55 12.5 52 11 91 91 N N/A 29.97 1015 10 16 N/A
11:15 am 11:15 Cloudy 55 12.5 52 11 91 91 N N/A 29.97 1015 10 16 N/A
11:35 am 11:35 Cloudy 55 12.5 52 11 91 91 N N/A 29.97 1015 10 16 N/A
11:55 am 11:55 Cloudy 55 12.5 52 11 91 91 N N/A 30.00 1016 10 16 N/A
12:15 pm 12:15 Cloudy 55 12.5 52 11 91 91 N N/A 29.97 1015 10 16 N/A
12:35 pm 12:35 Cloudy 55 12.5 52 11 91 91 NW 3 6 30.00 1016 10 16 N/A
12:55 pm 12:55 Cloudy 55 12.9 52 11.1 89 89 NW 8 13 29.97 1015 10 16 N/A
1:15 pm 13:15 Partly Cloudy 57 13.8 51 10.6 81 81 W 6 9 29.97 1015 10 16 N/A
1:35 pm 13:35 Partly Cloudy 60 15.3 52 11.1 76 76 NW 8 13 29.94 1014 10 16 N/A
1:55 pm 13:55 Mostly Cloudy 60 15.3 51 10.7 74 74 WNW 5 7 29.94 1014 7 11 N/A
2:15 pm 14:15 Partly Cloudy 60 15.3 51 10.6 74 74 NW 8 13 29.94 1014 10 16 N/A
2:35 pm 14:35 Partly Cloudy 60 15.4 50 9.8 69 69 NW 9 15 29.94 1014 10 16 N/A
2:55 pm 14:55 Partly Cloudy 60 15.8 48 8.9 64 64 WNW 9 15 29.94 1014 10 16 N/A
3:15 pm 15:15 Sunny 61 15.9 47 8.3 61 61 WNW 13 20 29.94 1014 10 16 N/A
3:35 pm 15:35 Sunny 62 16.6 45 7.2 54 54 WNW 10 17 29.94 1014 10 16 N/A
3:55 pm 15:55 Sunny 62 16.6 47 8.1 57 57 WNW 8 13 29.91 1013 10 16 N/A
4:15 pm 16:15 Partly Cloudy 63 17.3 43 6.2 48 48 NW 10 17 29.94 1014 10 16 N/A
4:35 pm 16:35 Sunny 61 16.1 41 5.2 49 49 NW 12 19 29.94 1014 10 16 N/A
4:55 pm 16:55 Sunny 62 16.6 43 5.9 49 49 NW 12 19 29.94 1014 10 16 N/A
5:15 pm 17:15 Partly Cloudy 61 16 42 5.4 50 50 NW 14 22 29.97 1015 10 16 N/A
5:35 pm 17:35 Sunny 60 15.4 40 4.3 48 48 NW 10 17 30.00 1016 10 16 N/A
5:55 pm 17:55 Sunny 60 15.3 41 5.2 51 51 NW 15 24 30.00 1016 10 16 N/A
6:15 pm 18:15 Sunny 60 15.3 42 5.3 52 52 NW 10 17 30.00 1016 10 16 N/A
6:35 pm 18:35 Sunny 60 15.3 40 4.6 49 49 NW 10 17 30.00 1016 10 16 N/A
6:55 pm 18:55 Sunny 60 15.3 42 5.3 52 52 NW 10 17 30.00 1016 10 16 N/A
7:15 pm 19:15 Sunny 57 13.8 39 3.7 51 51 WNW 8 13 30.03 1017 10 16 N/A
7:35 pm 19:35 Sunny 57 13.8 39 3.7 51 51 NW 8 13 30.03 1017 10 16 N/A
7:55 pm 19:55 Clear 55 12.5 38 3.2 53 53 NW 7 11 30.03 1017 10 16 N/A
8:15 pm 20:15 Clear 55 12.5 38 3.5 55 55 NW 5 7 30.06 1018 10 16 N/A
8:35 pm 20:35 Clear 54 12.3 40 4.6 60 60 NW 7 11 30.06 1018 10 16 N/A
8:55 pm 20:55 Clear 53 11.9 39 4 59 59 NW 7 11 30.06 1018 10 16 N/A
9:15 pm 21:15 Clear 51 10.4 37 3 60 60 NW 6 9 30.09 1019 10 16 N/A
9:35 pm 21:35 Clear 51 10.3 37 2.9 60 60 NW 8 13 30.09 1019 10 16 N/A
9:55 pm 21:55 Clear 49 9.6 36 2.2 60 60 NW 6 9 30.09 1019 10 16 N/A
10:15 pm 22:15 Clear 50 10 36 2.2 59 59 NW 6 9 30.12 1020 10 16 N/A
10:35 pm 22:35 Clear 49 9.6 36 2.1 60 60 N 3 6 30.12 1020 10 16 N/A
10:55 pm 22:55 Clear 49 9.6 38 3.4 66 66 N 5 7 30.12 1020 10 16 N/A
11:15 pm 23:15 Clear 47 8.4 38 3.3 71 71 N 5 7 30.12 1020 10 16 N/A
11:35 pm 23:35 Clear 47 8.2 38 3.1 71 71 N 5 7 30.15 1021 10 16 N/A
11:55 pm 23:55 Clear 44 6.6 37 2.8 77 77 N 3 6 30.15 1021 10 16 N/A

Powered by AerisWeather